Regional Weather Roundup
Issued by NWS

Home | Current Version | Previous Version | Text Only | Print | Product List | Glossary On
Versions: 1 2 3 4 5 6 7 8 9 10 11 12 13 14 15 16 17 18 19 20 21 22 23 24 25 26 27 28 29 30 31 32 33 34 35 36 37 38 39 40 41 42 43 44 45 46 47 48 49 50
911
ASUS43 KDTX 242010
RWRMI
MICHIGAN HOURLY REGIONAL WEATHER ROUNDUP
NATIONAL WEATHER SERVICE DETROIT/PONTIAC MI
300 PM EST FRI NOV 24 2017

NOTE: "FAIR" INDICATES FEW OR NO CLOUDS BELOW 12,000 FEET WITH NO
SIGNIFICANT WEATHER AND/OR OBSTRUCTION TO VISIBILITY.

MIZ047>049-052>055-059>063-066>070-074>076-081>083-242100-
SOUTHEAST LOWER MICHIGAN

CITY           SKY/WX    TMP DP  RH WIND       PRES   REMARKS
ADRIAN         SUNNY     52  33  48 SW20G28   29.69F
ALMA           SUNNY     57  34  41 S16G28    29.55F
ANN ARBOR      SUNNY     52  32  46 S16       29.66F
BAD AXE        SUNNY     53  32  44 S17G23    29.54F
CARO           SUNNY     58  34  40 S17       29.54F
DETROIT CITY   SUNNY     52  31  44 S14       29.67F
DETROIT        MOSUNNY   54  32  43 SW20      29.68F
FLINT          SUNNY     56  31  38 S16G24    29.59F
GROSSE ILE     SUNNY     48  36  63 S14       29.68F
HILLSDALE      SUNNY     54  32  43 S15       29.66F
HOWELL         SUNNY     55  32  41 S14G22    29.61F

CITY           SKY/WX    TMP DP  RH WIND       PRES   REMARKS
JACKSON        SUNNY     55  31  39 S15G23    29.63F
LAMBERTVILLE   SUNNY     55  32  40 SW13      29.70F
LANSING        SUNNY     56  34  43 S17       29.59F
LAPEER         FAIR      55  31  40 SW14G20   29.60F
MASON          SUNNY     56  32  39 S8G17     29.60F
MONROE         SUNNY     55  31  40 S13G23    29.69F
MT. CLEMENS    MOSUNNY   51  33  50 S15       29.64F
PONTIAC        MOSUNNY   51  31  46 S17G24    29.63F
PORT HOPE        N/A     54  33  45 S9G23     29.50F
PORT HURON     SUNNY     48  28  46 S17G26    29.65F
TRI CITIES     MOSUNNY   57  35  43 S17G24    29.54F
MIDLAND        FAIR      58  35  42 SW16      29.52F
TROY           SUNNY     55  30  38 S16G25    29.67F
SAGINAW HB     SUNNY     55  34  44 S18G26    29.54F
$$
MIZ043>046-050>051-056>058-064>065-071>073-077>080-242100-
SOUTHWEST LOWER MICHIGAN

CITY           SKY/WX    TMP DP  RH WIND       PRES   REMARKS
BATTLE CREEK   SUNNY     55  34  45 S16       29.60F
BENTON HARBOR  SUNNY     59  33  37 S15G24    29.56F
BIG RAPIDS     SUNNY     59  32  36 S10G20    29.47F
COLDWATER      SUNNY     55  30  38 S15G22    29.64F
FREMONT        FAIR      58  34  40 SW20G32   29.49F
HOLLAND        SUNNY     60  36  40 S17G26    29.54F
GRAND RAPIDS   MOSUNNY   58  35  42 SW20G28   29.55F
IONIA          FAIR      57  32  39 S16G24    29.56F
KALAMAZOO      SUNNY     55  32  41 S17G24    29.61F
LUDINGTON      SUNNY     53  37  54 S22G32    29.42F
MARSHALL       SUNNY     55  32  42 S15G22    29.61F
MOUNT PLEASANT MOSUNNY   58  32  37 S10G20    29.51F
MUSKEGON       MOSUNNY   54  36  50 S23G35    29.50F
SOUTH HAVEN    SUNNY     61  32  34 S16G23    29.56F
$$
MIZ016>042-242100-
NORTHERN LOWER MICHIGAN

CITY           SKY/WX    TMP DP  RH WIND       PRES   REMARKS
ALPENA         SUNNY     54  36  50 S16G29    29.39F
BEAVER ISLAND  CLOUDY    53  39  60 SW22G30   29.28F
BELLAIRE       SUNNY     63  42  46 S20G28    29.33F
CADILLAC       SUNNY     57  36  45 SW26G37   29.42F
CHARLEVOIX     PTSUNNY   61  38  43 S18G32    29.32F
FRANKFORT      MOSUNNY   59  37  45 S25G38    29.35F
GAYLORD        SUNNY     58  37  45 SW18G29   29.36F
GRAYLING       MOSUNNY   56  35  45 S9        29.42F
HARBOR SPRINGS CLOUDY    60  39  45 SW12G30   29.30F
HOUGHTON LAKE  CLOUDY    51  32  48 S13G21    29.46F
MANISTEE       CLOUDY    59  37  44 S17G29    29.38F
OSCODA         MOSUNNY   51  31  45 SW20      29.46F
ROGERS CITY    MOSUNNY   58  38  46 SW18G24   29.33S
TRAVERSE CITY  MOSUNNY   63  37  38 SW15G26   29.32F
$$
MIZ007>008-015-242100-
EASTERN UPPER MICHIGAN

CITY           SKY/WX    TMP DP  RH WIND       PRES   REMARKS
KINROSS        LGT RAIN  52  39  61 W15G21    29.28F
MACKINAC ISLAN CLOUDY    57  36  45 SW12G20   29.27F
NEWBERRY       LGT RAIN  46  43  88 SW18G24   29.29R
S. S. MARIE    CLOUDY    50  40  68 W9        29.30R
MUNISING         N/A     49  37  63 S9        29.23F
$$
MIZ004>006-011>014-085-242100-
CENTRAL UPPER MICHIGAN

CITY           SKY/WX    TMP DP  RH WIND       PRES   REMARKS
MANISTIQUE     CLOUDY    45  40  81 W8G20     29.30R
ESCANABA       CLOUDY    51  37  58 S8        29.26S
MENOMINEE      CLOUDY    56  37  49 SW8       29.26F
SAWYER-GWINN   SUNNY     52  36  54 SW7       29.24S
$$
MIZ001>003-009>011-084-242100-
WESTERN UPPER MICHIGAN

CITY           SKY/WX    TMP DP  RH WIND       PRES   REMARKS
IRON MOUNTAIN  PTSUNNY   57  36  45 W14       29.24S
HOUGHTON       RAIN      43  38  82 W18       29.21R
COPPER HARBOR    N/A     46  40  79 NW8G20    29.19S
IRONWOOD       LGT RAIN  45  40  82 SW8       29.28R
$$

ABBREVIATIONS USED IN REMARKS
   TC - TEMPERATURE IN CELSIUS
  WCI - WIND CHILL INDEX
   HX - HEAT INDEX
  VSB - VISIBILITY





USA.gov is the U.S. government's official web portal to all federal, state and local government web resources and services.